Weather History for Minot, ND

Change the Weather History Date:

Sunday, October 27, 2013

  Actual Average Record
Temperature  
Mean Temperature 3 °C 4 °C  
Max Temperature 9 °C 9 °C 25 °C (1938)
Min Temperature -4 °C -2 °C -21 °C (1919)
Degree Days  
Heating Degree Days 28 26  
Month to date heating degree days 573 531  
Since 1 July heating degree days 764 851  
Cooling Degree Days 0 0  
Month to date cooling degree days 0 0  
Year to date cooling degree days 421 444  
Moisture  
Dew Point -4 °C    
Average Humidity 63    
Maximum Humidity 76    
Minimum Humidity 49    
Precipitation  
Precipitation 0.00 mm 0.51 mm 0.84 mm (1984)
Month to date precipitation 2.32 1.04  
Year to date precipitation 24.66 15.94  
Sea Level Pressure  
Sea Level Pressure 1019 hPa    
Wind  
Wind Speed 22 km/h (North)    
Max Wind Speed 35 km/h    
Max Gust Speed 47 km/h    
Visibility 16 kilometers    
Events      
T = Trace of Precipitation, MM = Missing Value Source: NWS Daily Summary

Daily Weather History Graph

Daily Weather History Graph

Search for Another Location

Airport:

Trip Planner

Search our weather history database for the weather conditions in past years. The results will help you decide how hot, cold, wet, or windy it might be!

Date:

Astronomy

Oct. 27, 2013 Rise Set
Actual Time 8:23 AM CDT 6:33 PM CDT
Civil Twilight 7:51 AM CDT 7:06 PM CDT
Nautical Twilight 7:14 AM CDT 7:42 PM CDT
Astronomical Twilight 6:38 AM CDT 8:18 PM CDT
Moon 12:51 AM CDT (10/27) 3:12 PM CDT (10/27)
Length of Visible Light 11h 14m
Length of Day
10h 10m
Last Quarter, 43% of the Moon is Illuminated
Oct 27
Last Quarter
Nov 3
New
Nov 9
First Quarter
Nov 17
Full
Nov 25
Last Quarter

Hourly Weather History & Observations

Time (CDT) Temp. Windchill Dew Point Humidity Pressure Visibility Wind Dir Wind Speed Gust Speed Precip Events Conditions
12:54 AM 8.3 °C - -1.7 °C 50% 1009.2 hPa 16.1 km WSW 24.1 km/h / 6.7 m/s - N/A   Clear
1:54 AM 7.8 °C 4.8 °C -1.1 °C 54% 1008.7 hPa 16.1 km West 18.5 km/h / 5.1 m/s - N/A   Clear
2:54 AM 4.4 °C 1.7 °C -1.1 °C 68% 1009.6 hPa 16.1 km SW 11.1 km/h / 3.1 m/s - N/A   Clear
3:54 AM 5.6 °C 2.0 °C -0.6 °C 65% 1009.3 hPa 16.1 km West 18.5 km/h / 5.1 m/s - N/A   Clear
4:54 AM 4.4 °C 1.1 °C -0.6 °C 70% 1010.0 hPa 16.1 km WNW 14.8 km/h / 4.1 m/s - N/A   Clear
5:54 AM 3.9 °C -0.1 °C 0.0 °C 76% 1010.7 hPa 16.1 km NW 18.5 km/h / 5.1 m/s - N/A   Clear
6:54 AM 3.9 °C 0.4 °C -1.1 °C 70% 1011.7 hPa 16.1 km NNW 14.8 km/h / 4.1 m/s - N/A   Mostly Cloudy
7:54 AM 2.8 °C -1.2 °C -1.1 °C 76% 1012.8 hPa 16.1 km NNW 16.7 km/h / 4.6 m/s - N/A   Mostly Cloudy
8:54 AM 2.2 °C -2.2 °C -1.7 °C 76% 1014.0 hPa 16.1 km North 18.5 km/h / 5.1 m/s - N/A   Partly Cloudy
9:54 AM 2.8 °C -2.4 °C -2.2 °C 70% 1015.6 hPa 16.1 km North 25.9 km/h / 7.2 m/s - N/A   Clear
10:54 AM 3.3 °C -1.3 °C -2.2 °C 68% 1016.9 hPa 16.1 km NNE 22.2 km/h / 6.2 m/s 38.9 km/h / 10.8 m/s N/A   Mostly Cloudy
11:51 AM 4.0 °C 0.0 °C -2.0 °C 65% 1016.5 hPa 16.1 km North 18.5 km/h / 5.1 m/s - N/A   Overcast
11:54 AM 3.9 °C -0.6 °C -2.2 °C 65% 1017.8 hPa 16.1 km North 22.2 km/h / 6.2 m/s - N/A   Overcast
12:54 PM 3.3 °C -1.5 °C -2.8 °C 65% 1019.0 hPa 16.1 km NNE 24.1 km/h / 6.7 m/s - N/A   Overcast
1:54 PM 2.8 °C -2.4 °C -2.8 °C 67% 1019.9 hPa 16.1 km NE 25.9 km/h / 7.2 m/s 33.3 km/h / 9.3 m/s N/A   Overcast
2:54 PM 2.2 °C -3.2 °C -2.8 °C 70% 1021.0 hPa 16.1 km NNE 25.9 km/h / 7.2 m/s - N/A   Overcast
3:54 PM 2.2 °C -3.4 °C -3.3 °C 67% 1021.5 hPa 16.1 km North 27.8 km/h / 7.7 m/s 37.0 km/h / 10.3 m/s N/A   Overcast
4:46 PM 2.0 °C -3.6 °C -4.0 °C 65% 1020.9 hPa 16.1 km NNE 27.8 km/h / 7.7 m/s 38.9 km/h / 10.8 m/s N/A   Overcast
4:54 PM 1.7 °C -3.4 °C -3.9 °C 67% 1022.9 hPa 16.1 km NNE 22.2 km/h / 6.2 m/s 38.9 km/h / 10.8 m/s N/A   Overcast
5:02 PM 2.0 °C -4.1 °C -4.0 °C 65% 1021.2 hPa 16.1 km NNE 33.3 km/h / 9.3 m/s 44.4 km/h / 12.3 m/s N/A   Overcast
5:54 PM 1.1 °C -4.8 °C -5.0 °C 64% 1024.6 hPa 16.1 km North 27.8 km/h / 7.7 m/s 35.2 km/h / 9.8 m/s N/A   Overcast
6:54 PM -1.1 °C -8.0 °C -6.1 °C 69% 1026.2 hPa 16.1 km NNE 31.5 km/h / 8.7 m/s 40.7 km/h / 11.3 m/s N/A   Overcast
7:54 PM -2.2 °C -9.3 °C -7.2 °C 69% 1027.8 hPa 16.1 km NNE 29.6 km/h / 8.2 m/s 42.6 km/h / 11.8 m/s N/A   Overcast
8:54 PM -2.8 °C -10.3 °C -7.8 °C 69% 1028.9 hPa 16.1 km NNE 31.5 km/h / 8.7 m/s 44.4 km/h / 12.3 m/s N/A   Overcast
9:19 PM -3.0 °C -9.6 °C -8.0 °C 69% 1027.0 hPa 16.1 km NNE 24.1 km/h / 6.7 m/s 37.0 km/h / 10.3 m/s N/A   Overcast
9:54 PM -2.8 °C -9.6 °C -8.9 °C 63% 1030.3 hPa 16.1 km NE 25.9 km/h / 7.2 m/s - N/A   Overcast
10:54 PM -3.9 °C -10.2 °C -9.4 °C 66% 1031.3 hPa 16.1 km NE 20.4 km/h / 5.7 m/s - N/A   Overcast
11:54 PM -3.9 °C -9.5 °C -10.0 °C 63% 1032.3 hPa 16.1 km NE 16.7 km/h / 4.6 m/s - N/A   Overcast